Theta_e
360 359 357 352 326 323 316 318 326 320 322 327 329 327 327 331 321 317 344 348 350 353 358 359 363 364 362 363 362 361 360 359 360 359 359 359 359 359 359 359 359 360 360 360 359 357 359 359 358
359 354 356 346 320 313 315 324 322 323 326 331 331 331 330 328 337 338 341 348 350 354 356 358 363 365 361 362 363 362 360 359 360 360 361 361 360 360 360 359 358 357 358 358 360 359 358 358 359
358 360 347 329 319 313 316 322 322 325 327 326 329 335 332 330 337 339 347 351 351 355 357 360 365 364 361 361 361 361 360 360 360 359 359 358 359 360 356 356 360 361 359 360 360 360 358 357 357
351 352 332 321 316 319 321 323 324 324 328 330 330 327 337 343 340 347 351 353 351 355 357 362 363 361 361 361 361 360 359 359 361 358 358 360 360 361 360 357 361 361 360 358 359 360 360 359 357
352 338 322 318 317 322 325 329 326 321 325 327 329 326 332 343 350 349 351 353 351 353 357 359 364 363 360 360 360 360 361 360 360 360 361 361 360 360 360 360 359 357 359 359 358 358 360 360 357
333 331 319 315 317 323 326 329 325 325 329 328 328 329 334 348 347 347 350 350 351 351 356 356 361 362 363 361 361 363 362 360 359 359 359 360 359 359 359 359 358 358 356 356 357 358 358 359 357
332 326 318 318 318 320 325 327 325 325 327 327 333 327 336 340 348 348 348 352 354 352 353 355 357 362 364 363 363 363 361 361 362 361 360 360 359 359 358 358 357 357 357 358 357 357 356 357 356
338 329 319 320 318 318 327 326 329 327 326 336 336 328 331 342 349 349 349 352 353 353 351 356 362 362 363 363 361 361 361 360 360 360 360 359 358 356 358 357 358 357 356 356 356 357 356 356 356
338 325 319 318 319 322 329 325 329 332 329 330 333 336 341 346 349 346 345 349 352 353 354 356 358 360 362 359 357 361 362 361 361 360 361 360 362 358 359 357 357 356 357 359 359 358 357 357 357
331 324 321 325 326 324 328 327 328 327 326 329 334 342 344 345 345 342 341 343 346 349 352 355 357 360 358 355 359 361 360 359 363 364 364 365 363 364 359 358 358 358 359 358 358 359 359 359 356
328 321 325 326 329 329 328 328 331 327 323 329 332 337 341 341 342 341 342 343 345 349 352 356 358 360 356 358 358 358 359 360 360 364 363 363 365 364 360 361 359 361 359 362 356 357 357 359 361
318 322 325 329 331 329 328 330 328 329 329 332 337 340 340 339 338 339 340 342 344 348 350 353 355 357 359 361 358 356 356 359 357 358 361 362 365 361 359 356 357 359 360 358 360 357 358 357 356
319 320 326 331 329 330 332 328 328 329 332 336 338 339 338 337 338 341 342 342 345 346 348 351 354 356 360 361 357 355 355 356 355 357 356 358 357 358 357 358 358 357 357 356 357 358 358 357 357
320 324 328 330 329 330 328 329 330 328 335 335 337 337 339 339 340 343 345 343 341 343 346 351 354 357 359 359 359 357 356 355 356 355 356 360 359 360 359 356 357 358 359 359 358 358 358 358 358
322 322 325 327 327 327 330 324 326 330 334 334 335 337 338 340 342 343 346 346 343 342 343 348 352 355 356 355 356 355 357 353 353 354 358 361 362 363 361 358 358 360 361 360 360 360 359 358 357
320 320 316 323 326 324 325 319 325 330 333 332 334 335 337 339 341 344 346 348 346 343 346 348 347 348 353 353 354 353 355 355 355 356 357 360 362 364 362 358 363 362 362 359 362 360 357 354 354
316 313 314 316 325 323 323 319 326 328 330 331 333 335 336 338 341 344 345 347 348 346 349 348 349 347 350 352 351 352 357 356 355 357 359 362 362 363 359 356 358 362 361 360 359 359 356 351 350
309 310 311 311 317 322 320 320 325 326 327 328 330 333 335 336 339 343 345 347 349 348 351 352 348 351 353 351 352 352 354 355 358 360 360 362 361 359 359 356 360 362 360 358 359 356 353 350 346
313 311 309 313 317 318 318 319 321 327 326 326 327 328 330 334 339 341 344 346 347 348 349 351 351 354 352 350 349 349 350 354 357 361 361 361 361 360 360 361 362 361 356 356 356 352 348 344 345
312 310 310 314 318 318 317 317 321 326 327 328 328 328 329 331 334 337 339 342 344 346 347 350 352 355 353 352 353 353 353 355 358 363 361 360 357 354 358 361 359 356 351 349 347 348 345 343 343
310 310 309 310 314 318 317 315 318 323 328 330 331 331 332 332 332 335 336 338 341 344 346 348 353 356 355 357 354 355 357 359 355 357 356 355 353 359 359 360 356 352 349 345 346 344 344 341 341
309 311 311 309 308 304 315 304 316 317 322 325 328 330 331 333 335 336 336 338 339 342 346 349 351 353 354 356 355 357 352 350 353 357 358 357 357 359 362 357 354 351 346 347 346 345 343 344 340
311 312 309 308 308 307 309 308 311 316 316 320 326 329 332 334 335 335 336 339 341 343 344 347 351 353 356 355 359 355 355 353 356 356 357 358 361 362 356 354 353 349 346 349 348 347 344 340 338
309 307 305 305 308 301 306 308 306 312 316 319 324 329 331 334 336 337 339 340 341 343 344 347 350 353 355 355 355 359 358 355 354 356 356 358 359 357 354 352 351 351 349 349 348 346 344 341 339
307 304 299 298 299 299 303 306 308 314 314 318 322 325 332 334 335 336 336 337 340 342 343 345 350 352 353 354 355 355 357 357 358 358 356 360 353 351 351 352 350 349 352 351 348 345 343 340 337
304 304 300 295 295 298 300 300 306 314 322 325 327 327 332 335 336 336 337 338 341 342 343 345 348 351 352 353 354 357 357 353 354 358 359 360 358 352 354 352 352 352 353 351 346 342 338 338 335
301 302 303 298 296 298 301 305 310 319 323 324 324 327 330 334 337 338 338 338 340 342 344 345 347 350 351 352 355 355 356 355 354 358 357 355 353 350 353 352 350 352 351 347 345 339 337 336 334
305 304 300 301 295 293 299 301 305 315 318 322 324 325 329 330 333 336 337 338 340 342 343 345 348 349 350 351 353 353 354 357 358 358 354 355 347 351 351 349 351 351 347 345 342 337 335 333 329
302 302 300 302 300 297 297 301 310 313 317 318 322 326 328 329 331 334 337 339 340 343 344 344 346 348 348 350 352 354 354 355 357 351 352 349 351 348 345 347 347 345 342 341 338 335 332 328 327
304 304 305 301 298 299 299 301 315 318 319 320 322 324 325 328 331 335 334 337 339 342 345 346 346 346 348 351 353 352 354 354 355 353 354 355 351 352 348 348 343 337 332 335 335 330 326 325 324
Wind_Speed
13 8 3 2 1 2 4 5 2 10 5 2 10 2 4 6 2 7 10 10 17 14 13 13 12 14 15 14 15 15 15 14 12 11 10 9 8 9 8 7 6 7 8 9 8 6 7 7 7
10 8 2 1 2 5 5 3 8 7 8 13 11 6 5 5 4 11 11 16 17 14 13 14 12 13 14 14 13 12 13 12 10 8 8 7 9 8 7 5 5 6 7 8 9 8 8 8 8
11 2 2 3 3 5 4 5 12 10 6 4 5 8 3 4 8 16 11 18 16 14 13 15 14 13 14 14 12 13 11 11 9 7 7 6 7 6 7 5 6 6 8 7 8 7 9 8 7
4 3 2 6 8 5 4 7 10 7 9 7 7 8 6 2 12 6 19 17 16 14 13 15 15 14 12 12 12 12 10 8 9 6 5 4 5 7 6 6 6 7 7 8 6 7 8 8 7
2 1 4 4 5 3 4 7 6 3 6 6 4 7 10 4 7 18 17 15 15 14 12 14 13 12 12 12 10 10 9 8 8 7 5 5 5 7 5 6 5 6 6 5 5 4 6 8 7
1 1 3 5 4 3 4 7 4 7 9 12 13 12 5 5 14 16 15 15 14 14 12 13 12 12 13 12 10 9 9 7 6 6 5 4 4 4 4 4 4 5 5 4 4 4 4 5 5
2 2 3 2 2 0 4 7 6 7 10 8 11 7 5 8 13 14 13 13 12 12 11 10 12 12 11 10 9 9 8 7 6 6 4 4 3 3 3 2 2 2 2 3 3 3 2 1 3
1 1 1 2 2 1 8 5 9 9 6 12 6 6 8 12 16 14 12 12 12 11 11 10 8 8 8 9 9 7 7 7 6 4 3 3 3 3 2 1 1 1 1 1 2 2 3 3 4
1 0 1 1 2 1 11 6 5 5 13 3 3 6 13 19 16 15 13 11 10 9 10 9 10 9 7 6 6 7 6 6 8 6 5 4 2 2 2 1 2 4 4 4 4 3 3 4 6
2 1 3 1 4 3 11 8 10 5 12 5 11 15 20 18 17 17 17 14 14 13 12 10 9 9 8 5 6 6 4 4 3 2 2 1 2 1 5 5 5 6 7 6 6 5 6 7 4
2 2 2 3 5 8 11 8 5 12 8 8 16 21 20 18 16 15 15 15 15 13 11 12 11 9 9 7 5 4 4 3 3 4 4 3 2 2 3 3 3 3 5 3 4 4 4 5 3
3 5 4 3 8 8 9 7 6 8 1 10 20 21 20 19 19 17 15 13 13 13 13 13 13 10 10 6 6 5 4 4 4 4 5 3 2 2 3 3 4 4 4 5 5 5 6 7 4
3 4 1 5 10 10 10 5 1 7 7 18 18 19 19 18 16 14 12 12 12 14 14 14 13 11 9 9 6 6 5 5 5 4 5 4 4 3 3 3 4 4 4 4 6 4 5 6 6
5 2 5 5 9 8 8 4 4 5 14 18 21 19 17 17 17 14 14 14 14 14 14 13 13 12 11 10 9 6 5 5 4 4 5 6 4 3 4 4 4 4 4 4 4 4 4 5 5
2 5 7 5 4 3 7 4 7 12 16 18 20 18 16 16 15 17 16 15 15 13 13 14 13 13 12 12 9 7 5 5 5 5 6 6 6 5 4 4 4 3 3 5 4 4 4 4 3
1 3 2 1 4 4 5 5 3 16 18 17 18 17 17 17 19 17 15 15 13 13 14 13 11 12 12 10 8 6 5 4 5 5 6 7 6 5 4 4 3 2 3 3 2 2 2 3 3
3 6 2 2 4 2 7 5 5 16 16 16 16 18 18 18 18 18 18 16 15 15 14 14 14 13 13 10 7 7 6 5 5 5 5 5 5 5 3 3 2 3 2 2 1 1 3 3 4
4 4 1 3 1 5 6 10 6 15 17 17 17 17 17 18 22 20 20 17 16 15 14 13 12 13 11 7 6 5 5 5 4 3 4 5 4 4 2 2 3 2 2 2 2 3 2 3 4
5 2 3 4 6 4 5 9 8 14 16 17 18 18 19 20 21 18 18 17 15 14 15 14 14 13 10 8 7 7 7 5 4 3 4 5 4 4 3 2 2 1 1 3 2 2 3 3 4
5 2 4 6 3 4 4 9 8 18 23 22 21 20 21 19 17 17 17 16 18 17 16 15 15 14 12 8 7 5 5 4 3 2 3 4 4 3 3 2 1 1 3 3 3 2 1 2 5
4 5 1 6 9 3 5 7 4 7 13 17 19 19 21 21 21 19 18 19 17 17 18 17 16 15 13 12 6 4 3 2 3 4 4 4 3 2 4 4 3 3 2 2 3 3 2 1 3
9 4 4 4 4 5 6 6 8 2 9 13 19 23 22 22 19 19 19 18 19 20 16 16 15 15 14 13 10 10 8 7 5 5 5 4 5 5 5 5 5 4 3 4 4 4 4 2 1
5 3 1 1 4 4 1 5 9 4 13 8 15 19 22 22 22 21 20 20 19 16 17 17 15 14 13 13 12 11 10 6 4 5 7 5 5 6 6 6 6 6 3 4 4 4 4 4 3
9 5 6 3 3 5 1 6 11 6 7 6 2 9 17 20 21 20 18 16 15 14 14 14 15 14 14 14 15 14 12 9 6 6 7 7 6 6 7 7 5 4 4 4 4 5 6 5 4
5 6 5 7 6 6 3 5 11 12 8 12 13 8 11 16 18 19 19 18 16 17 16 14 15 15 15 16 15 15 13 11 9 8 6 7 6 7 9 9 7 5 4 4 4 5 5 5 4
9 8 4 6 5 6 3 6 9 2 10 8 7 8 7 14 15 17 18 17 17 17 17 17 17 14 15 14 14 11 11 7 6 6 5 4 4 7 11 9 9 7 6 5 5 4 4 5 5
6 5 3 5 1 4 1 6 12 3 7 5 2 2 4 8 10 12 14 16 16 16 18 19 17 15 14 14 11 11 10 10 7 6 5 2 4 5 7 11 9 8 7 6 6 4 5 4 4
3 10 5 1 3 4 4 5 6 6 9 6 3 3 2 2 5 8 10 13 15 17 17 16 16 17 15 13 11 10 10 9 9 7 8 7 5 9 9 8 13 8 7 7 5 5 5 5 4
6 4 5 4 2 3 3 3 1 10 11 12 7 4 2 3 5 6 8 12 15 14 14 14 13 15 13 12 10 9 9 11 11 7 7 8 10 9 10 9 9 12 10 8 6 5 5 5 6
2 3 7 4 5 0 3 6 4 6 8 7 10 8 3 5 6 5 7 8 11 13 14 14 14 14 14 14 14 13 12 10 9 8 11 11 12 11 11 11 10 9 9 8 8 6 6 6 7
Wind_Direction
141 139 143 224 85 60 53 53 62 118 136 72 146 181 113 40 47 89 137 142 137 138 132 136 134 127 125 124 121 126 127 128 124 120 116 126 128 117 115 112 108 129 113 104 104 104 112 128 127
145 146 202 285 54 64 58 37 90 69 94 121 98 104 61 82 70 121 135 149 143 137 137 138 137 135 136 127 131 133 133 130 120 127 121 126 128 120 111 106 113 116 110 101 108 110 107 122 124
159 229 308 64 43 52 66 65 116 111 85 115 108 55 56 64 121 139 136 148 145 142 141 137 141 138 142 139 140 140 137 129 132 127 120 133 121 114 107 116 112 113 104 98 116 111 117 115 111
170 180 161 51 50 59 66 122 136 122 86 67 103 75 85 114 139 152 146 150 148 147 146 136 142 147 146 143 153 142 135 143 133 134 149 145 114 125 110 119 98 104 112 114 100 118 118 112 108
154 221 44 43 36 41 101 133 154 89 91 73 97 93 105 115 123 143 148 155 151 150 151 146 150 155 157 162 154 146 150 154 147 155 159 131 131 116 135 110 109 99 86 107 117 114 112 119 119
225 247 21 22 22 29 85 141 120 102 103 115 102 106 109 121 142 150 152 155 154 156 156 151 155 165 172 164 161 152 151 156 160 168 176 139 132 125 130 127 126 125 120 107 100 99 102 126 128
6 19 33 20 14 87 130 146 123 112 127 108 129 104 108 152 150 153 155 154 155 159 159 160 166 175 162 174 158 168 159 169 179 176 173 145 139 161 148 137 129 108 110 131 139 123 138 136 174
45 304 68 13 347 21 140 132 127 122 93 126 127 163 168 167 157 151 156 159 160 164 164 169 174 171 178 164 173 165 175 179 185 178 153 174 194 205 173 179 194 247 277 225 223 189 176 196 239
174 307 270 263 203 121 154 131 144 104 136 94 27 141 135 148 155 154 157 165 171 176 176 179 176 180 177 177 176 188 202 199 187 187 201 209 253 257 273 358 273 288 279 266 255 245 249 234 244
238 224 221 232 176 183 168 149 140 131 150 76 88 109 130 150 164 166 172 177 186 183 184 184 187 179 182 188 195 191 196 209 211 187 211 206 240 301 304 305 307 281 281 274 276 273 263 254 279
179 271 184 237 205 148 164 144 135 137 191 178 158 146 151 161 175 179 185 187 188 186 186 190 189 189 195 200 195 197 197 206 200 220 223 244 280 298 292 306 297 307 311 298 324 279 259 259 256
291 276 225 167 145 133 160 143 156 170 136 169 160 156 157 169 180 186 190 189 190 193 196 193 192 191 201 200 202 205 206 207 214 214 229 233 250 269 285 292 308 301 314 304 272 264 277 275 319
247 311 331 136 120 115 132 168 153 190 119 137 150 158 169 179 180 185 192 193 195 201 200 202 195 193 198 209 211 218 216 211 216 223 223 221 238 248 258 278 293 297 300 290 285 280 284 279 267
316 301 75 98 132 136 145 156 177 148 138 141 156 169 173 185 188 187 197 196 199 204 206 203 207 198 196 210 216 212 217 219 226 227 234 227 241 247 262 278 289 276 285 272 278 281 281 285 281
7 98 80 86 112 103 135 175 229 144 154 153 163 174 181 195 195 204 201 204 197 204 205 209 209 205 208 207 215 220 216 217 234 238 241 238 233 238 252 265 281 272 273 260 263 257 240 264 268
120 52 74 186 132 138 192 268 203 162 164 166 173 180 186 194 207 212 215 210 201 205 204 208 207 206 211 216 212 221 225 221 231 246 252 247 242 242 238 271 281 315 259 250 250 329 301 304 287
39 122 71 331 204 157 218 269 170 175 176 175 184 186 193 197 207 218 220 217 207 207 204 204 203 208 211 211 217 225 236 232 244 243 249 244 222 201 226 281 286 288 243 275 269 326 332 325 322
121 130 249 307 45 197 235 261 175 188 190 187 188 195 199 202 209 207 217 218 211 210 210 208 201 209 204 199 204 220 236 236 232 231 214 198 187 168 253 262 275 296 277 304 304 325 0 351 336
120 128 283 264 294 266 250 262 206 194 210 204 198 200 203 212 210 208 211 216 213 209 207 207 202 203 195 193 199 216 221 203 221 236 210 190 177 178 208 228 271 300 353 40 9 328 9 26 360
151 182 259 287 135 281 305 272 264 192 209 213 207 203 208 212 212 212 212 211 211 209 209 204 209 202 201 204 203 211 200 212 213 207 199 184 192 213 194 215 219 127 99 61 34 352 285 41 22
182 242 166 301 331 117 285 276 228 199 216 223 225 222 213 210 207 207 208 210 211 211 207 205 203 200 202 202 185 166 153 142 177 178 182 189 208 193 193 188 185 137 125 99 68 50 29 344 68
229 205 228 271 311 305 345 307 298 218 226 215 215 218 218 215 213 212 207 206 208 215 207 208 203 201 198 191 195 198 214 222 212 191 186 174 200 186 177 162 168 157 137 118 105 82 55 356 352
238 122 49 305 259 281 149 259 284 313 302 283 221 220 219 218 214 210 206 208 209 207 205 206 197 197 193 192 201 196 208 214 188 172 159 166 160 162 156 158 156 144 147 117 109 100 69 69 32
140 101 61 75 197 229 47 257 289 279 279 299 19 241 219 215 216 215 215 210 209 204 203 198 193 193 190 190 195 198 196 194 186 179 172 167 162 158 162 153 147 142 130 120 95 80 66 52 48
180 158 200 212 217 272 80 224 266 278 272 291 316 298 216 207 210 211 207 206 204 198 198 196 195 190 192 195 195 201 205 199 204 193 183 153 170 169 166 159 147 149 145 135 116 105 92 68 55
174 222 220 240 253 298 144 235 259 272 307 304 295 275 212 200 205 208 206 204 202 200 195 197 192 192 192 197 199 199 204 206 215 204 206 194 172 180 163 151 145 148 153 137 118 109 96 98 86
146 191 41 117 108 255 273 262 276 299 290 280 331 241 199 198 205 212 207 207 207 202 196 199 188 189 197 191 193 189 199 193 197 203 204 158 153 156 179 147 138 141 138 137 131 115 110 95 80
251 137 159 148 224 246 214 274 264 330 344 342 308 320 25 251 235 229 208 211 209 206 207 200 191 186 194 182 180 188 197 195 184 187 184 164 162 152 158 151 134 140 135 133 132 126 109 101 93
146 167 70 115 310 263 256 258 272 296 323 336 359 9 345 283 253 237 218 213 215 210 202 202 186 184 182 172 174 177 192 185 182 174 131 169 170 152 148 151 140 138 141 137 131 117 119 119 115
56 148 191 230 181 271 324 278 71 351 323 346 18 33 10 299 280 221 210 214 208 207 197 195 182 182 180 166 164 166 161 187 186 173 170 165 166 169 159 158 155 145 131 135 147 146 132 133 124